Myrtle Beach, SC

1:03 PM EST on February 23, 2017 (GMT -0500)
Myrtle Beach International

Weather History for KMYR - November, 2013

Change the Weather History Date:

Monday, November 4, 2013

  Actual Average Record
Temperature  
Mean Temperature 52 °F -  
Max Temperature 62 °F 67 °F 80 °F (2003)
Min Temperature 41 °F 47 °F 25 °F (1954)
Degree Days  
Heating Degree Days 14    
Growing Degree Days 2 (Base 50)    
Moisture  
Dew Point 38 °F    
Average Humidity 69    
Maximum Humidity 81    
Minimum Humidity 42    
Precipitation  
Precipitation 0.00 in - - ()
Sea Level Pressure  
Sea Level Pressure 30.40 in    
Wind  
Wind Speed 10 mph (NNE)    
Max Wind Speed 17 mph    
Max Gust Speed 20 mph    
Visibility 10 miles    
Events      
Averages and records for this station are not official NWS values.
T = Trace of Precipitation, MM = Missing Value Source: NWS Daily Summary

Daily Weather History Graph

Daily Weather History Graph

Search for Another Location

Airport or City:

Trip Planner

Search our weather history database for the weather conditions in past years. The results will help you decide how hot, cold, wet, or windy it might be!

Date:

Astronomy

Nov. 04, 2013 Rise Set
Actual Time 6:37 AM EST 5:20 PM EST
Civil Twilight 6:11 AM EST 5:46 PM EST
Nautical Twilight 5:42 AM EST 6:15 PM EST
Astronomical Twilight 5:12 AM EST 6:45 PM EST
Moon 7:43 AM EST (11/4) 6:26 PM EST (11/4)
Length of Visible Light 11h 34m
Length of Day
10h 42m
New Moon, 2% of the Moon is Illuminated
Nov 4
New Moon
Nov 10
First Quarter
Nov 17
Full
Nov 25
Last Quarter
Dec 2
New

Hourly Weather History & Observations

Time (EST) Temp. Windchill Dew Point Humidity Pressure Visibility Wind Dir Wind Speed Gust Speed Precip Events Conditions
12:15 AM 48.2 °F - 41.0 °F 76% 30.32 in 10.0 mi NNE 8.1 mph - N/A   Clear
12:35 AM 48.2 °F - 39.2 °F 71% 30.32 in 10.0 mi NNE 9.2 mph - N/A   Clear
12:55 AM 48.2 °F - 39.2 °F 71% 30.32 in 10.0 mi NE 10.4 mph - N/A   Clear
1:15 AM 48.2 °F - 39.2 °F 71% 30.32 in 10.0 mi NNE 9.2 mph - N/A   Clear
1:35 AM 48.2 °F - 39.2 °F 71% 30.32 in 10.0 mi NNE 8.1 mph - N/A   Clear
1:55 AM 46.4 °F 41.9 °F 39.2 °F 76% 30.33 in 10.0 mi North 9.2 mph - N/A   Clear
2:15 AM 44.6 °F 39.7 °F 39.2 °F 81% 30.34 in 10.0 mi North 9.2 mph - N/A   Clear
2:35 AM 44.6 °F 39.7 °F 39.2 °F 81% 30.35 in 10.0 mi North 9.2 mph - N/A   Clear
2:55 AM 44.6 °F 39.2 °F 39.2 °F 81% 30.36 in 10.0 mi North 10.4 mph - N/A   Clear
3:15 AM 44.6 °F 39.7 °F 39.2 °F 81% 30.37 in 10.0 mi North 9.2 mph - N/A   Clear
3:35 AM 44.6 °F 39.2 °F 39.2 °F 81% 30.38 in 10.0 mi NNE 10.4 mph - N/A   Clear
3:55 AM 44.6 °F 39.7 °F 39.2 °F 81% 30.39 in 10.0 mi NNE 9.2 mph - N/A   Clear
4:15 AM 44.6 °F 40.7 °F 39.2 °F 81% 30.39 in 10.0 mi NNE 6.9 mph - N/A   Clear
4:35 AM 44.6 °F 40.2 °F 39.2 °F 81% 30.38 in 10.0 mi NNE 8.1 mph - N/A   Clear
4:55 AM 44.6 °F 40.2 °F 37.4 °F 76% 30.38 in 10.0 mi NNE 8.1 mph - N/A   Clear
5:15 AM 44.6 °F 41.4 °F 37.4 °F 76% 30.38 in 10.0 mi NNE 5.8 mph - N/A   Clear
5:35 AM 42.8 °F 37.5 °F 37.4 °F 81% 30.39 in 10.0 mi North 9.2 mph - N/A   Clear
5:55 AM 42.8 °F 38.0 °F 37.4 °F 81% 30.39 in 10.0 mi NNE 8.1 mph - N/A   Clear
6:45 AM 41.0 °F 34.3 °F 35.6 °F 81% 30.41 in 10.0 mi North 11.5 mph - N/A   Clear
7:45 AM 46.4 °F 40.4 °F 37.4 °F 71% 30.42 in 10.0 mi NNE 13.8 mph - N/A   Clear
8:46 AM 50.0 °F - 37.4 °F 62% 30.44 in 10.0 mi NNE 11.5 mph 19.6 mph N/A   Clear
9:46 AM 55.4 °F - 39.2 °F 54% 30.46 in 10.0 mi NE 11.5 mph 18.4 mph N/A   Clear
11:47 AM 60.8 °F - 42.8 °F 52% 30.44 in 10.0 mi NNE 17.3 mph - N/A   Clear
12:45 PM 62.6 °F - 41.0 °F 45% 30.43 in 10.0 mi NNE 17.3 mph - N/A   Clear
1:50 PM 62.6 °F - 41.0 °F 45% 30.41 in 10.0 mi NNE 11.5 mph - N/A   Clear
2:45 PM 62.6 °F - 39.2 °F 42% 30.40 in 10.0 mi NE 15.0 mph - N/A   Clear
3:50 PM 62.6 °F - 39.2 °F 42% 30.41 in 10.0 mi NE 9.2 mph 18.4 mph N/A   Clear
5:45 PM 55.4 °F - 39.2 °F 54% 30.43 in 10.0 mi NNE 9.2 mph - N/A   Clear
6:45 PM 53.6 °F - 39.2 °F 58% 30.45 in 10.0 mi NNE 12.7 mph - N/A   Clear
7:45 PM 51.8 °F - 35.6 °F 54% 30.45 in 10.0 mi NE 11.5 mph - N/A   Clear
8:45 PM 48.2 °F - 35.6 °F 62% 30.46 in 10.0 mi NNE 9.2 mph - N/A   Clear
9:45 PM 46.4 °F 41.1 °F 35.6 °F 66% 30.47 in 10.0 mi NNE 11.5 mph - N/A   Clear
10:55 PM 44.6 °F 39.7 °F 35.6 °F 71% 30.46 in 10.0 mi NNE 9.2 mph - N/A   Clear
11:15 PM 44.6 °F 40.2 °F 35.6 °F 71% 30.45 in 10.0 mi NNE 8.1 mph - N/A   Clear
11:35 PM 44.6 °F 39.2 °F 35.6 °F 71% 30.45 in 10.0 mi North 10.4 mph - N/A   Clear
11:55 PM 44.6 °F 38.1 °F 35.6 °F 71% 30.45 in 10.0 mi North 13.8 mph - N/A   Clear